Telluride, CO

8:51 PM MDT on June 24, 2018 (GMT -0600)
Telluride Regional

Weather History for KTEX - October, 2017

Change the Weather History Date:

Saturday, October 21, 2017

  Actual Average Record
Temperature  
Mean Temperature 34 °F -  
Max Temperature 41 °F 46 °F 63 °F (2016)
Min Temperature 28 °F 29 °F 19 °F (1996)
Degree Days  
Heating Degree Days 30    
Moisture  
Dew Point 16 °F    
Average Humidity 53    
Maximum Humidity 98    
Minimum Humidity 23    
Precipitation  
Precipitation 0.01 in - - ()
Sea Level Pressure  
Sea Level Pressure 30.21 in    
Wind  
Wind Speed 5 mph (WSW)    
Max Wind Speed 12 mph    
Max Gust Speed 21 mph    
Visibility 10 miles    
Events Snow    
Averages and records for this station are not official NWS values.
T = Trace of Precipitation, MM = Missing Value Source: NWS Daily Summary

Daily Weather History Graph

Daily Weather History Graph

Search for Another Location

Airport or City:

Astronomy

Oct. 21, 2017 Rise Set
Actual Time 7:26 AM MDT 6:25 PM MDT
Civil Twilight 6:59 AM MDT 6:52 PM MDT
Nautical Twilight 6:28 AM MDT 7:22 PM MDT
Astronomical Twilight 5:58 AM MDT 7:53 PM MDT
Moon 9:05 AM MDT (10/21) 7:58 PM MDT (10/21)
Length of Visible Light 11h 52m
Length of Day
10h 59m
Waxing Crescent, 4% of the Moon is Illuminated
Oct 21
Waxing Crescent
Oct 27
First Quarter
Nov 3
Full
Nov 10
Last Quarter
Nov 18
New

Hourly Weather History & Observations

Time (MDT) Temp. Windchill Dew Point Humidity Pressure Visibility Wind Dir Wind Speed Gust Speed Precip Events Conditions
12:15 AM 36.5 °F - 35.6 °F 97% 29.97 in 10.0 mi Calm Calm - N/A   Overcast
12:35 AM 37.0 °F - 35.6 °F 95% 29.99 in 10.0 mi Calm Calm - N/A   Overcast
12:55 AM 36.9 °F - 36.3 °F 98% 29.99 in 10.0 mi Calm Calm - N/A   Overcast
1:15 AM 37.8 °F 34.2 °F 35.1 °F 90% 30.00 in 10.0 mi SW 4.6 mph - N/A   Overcast
1:35 AM 37.2 °F 31.2 °F 33.3 °F 86% 30.01 in 10.0 mi NW 8.1 mph - 0.01 in   Overcast
1:55 AM 34.7 °F 26.4 °F 32.0 °F 90% 30.01 in 2.5 mi West 11.5 mph 20.7 mph 0.01 in Snow Light Snow
2:15 AM 34.2 °F 28.2 °F 31.1 °F 89% 30.03 in 5.0 mi West 6.9 mph - N/A Snow Light Snow
2:35 AM 33.1 °F 24.4 °F 30.4 °F 90% 30.03 in 4.0 mi West 11.5 mph - N/A Snow Light Snow
2:55 AM 33.1 °F 27.7 °F 29.3 °F 86% 30.03 in 10.0 mi West 5.8 mph - N/A   Overcast
3:15 AM 33.3 °F 27.9 °F 29.5 °F 86% 30.03 in 10.0 mi West 5.8 mph - N/A   Overcast
3:35 AM 32.9 °F 27.5 °F 28.9 °F 85% 30.03 in 10.0 mi WSW 5.8 mph - N/A   Mostly Cloudy
3:55 AM 33.3 °F 27.9 °F 25.7 °F 74% 30.03 in 10.0 mi West 5.8 mph - N/A   Mostly Cloudy
4:15 AM 32.7 °F 29.6 °F 25.7 °F 75% 30.03 in 10.0 mi West 3.5 mph - N/A   Scattered Clouds
4:35 AM 32.5 °F 28.1 °F 25.5 °F 75% 30.04 in 10.0 mi West 4.6 mph - N/A   Mostly Cloudy
4:55 AM 32.0 °F 25.6 °F 28.6 °F 87% 30.04 in 10.0 mi West 6.9 mph - N/A   Mostly Cloudy
9:15 AM 30.2 °F 25.4 °F 16.3 °F 56% 30.14 in 10.0 mi SW 4.6 mph - N/A   Clear
9:35 AM 31.5 °F 26.8 °F 15.8 °F 52% 30.14 in 10.0 mi West 4.6 mph - N/A   Clear
9:55 AM 31.8 °F 25.4 °F 14.5 °F 49% 30.15 in 10.0 mi West 6.9 mph - N/A   Clear
10:15 AM 31.6 °F 22.6 °F 14.5 °F 49% 30.16 in 10.0 mi West 11.5 mph - N/A   Clear
11:55 AM 34.2 °F 27.5 °F 14.7 °F 45% 30.19 in 10.0 mi WSW 8.1 mph - N/A   Clear
1:15 PM - - - N/A% 30.20 in 10.0 mi West 8.1 mph - N/A   Clear
1:35 PM 36.9 °F 31.4 °F 9.1 °F 32% 30.20 in 10.0 mi West 6.9 mph - N/A   Clear
2:15 PM 37.9 °F 35.5 °F 7.3 °F 28% 30.20 in 10.0 mi West 3.5 mph - N/A   Clear
2:35 PM 39.2 °F 33.6 °F 7.3 °F 27% 30.21 in 10.0 mi West 8.1 mph - N/A   Clear
2:55 PM 39.6 °F 34.0 °F 6.8 °F 26% 30.21 in 10.0 mi West 8.1 mph - N/A   Clear
3:15 PM 40.3 °F 34.4 °F 5.7 °F 24% 30.22 in 10.0 mi West 9.2 mph - N/A   Clear
3:35 PM 40.1 °F 33.6 °F 5.5 °F 24% 30.23 in 10.0 mi West 10.4 mph 16.1 mph N/A   Clear
3:55 PM 40.3 °F 34.9 °F 6.1 °F 24% 30.23 in 10.0 mi WSW 8.1 mph - N/A   Clear
4:15 PM 41.0 °F 34.7 °F 7.5 °F 25% 30.24 in 10.0 mi West 10.4 mph - N/A   Clear
4:35 PM 40.5 °F 33.6 °F 5.9 °F 24% 30.25 in 10.0 mi West 11.5 mph - N/A   Clear
4:55 PM 40.3 °F 33.9 °F 5.5 °F 24% 30.26 in 10.0 mi West 10.4 mph - N/A   Clear
5:15 PM 40.3 °F 34.4 °F 5.7 °F 24% 30.27 in 10.0 mi West 9.2 mph - N/A   Clear
5:35 PM 39.4 °F 32.7 °F 4.5 °F 23% 30.28 in 10.0 mi West 10.4 mph - N/A   Clear
5:55 PM 38.3 °F 32.5 °F 4.6 °F 25% 30.29 in 10.0 mi West 8.1 mph - N/A   Clear
6:15 PM 36.7 °F 30.5 °F 4.1 °F 26% 30.31 in 10.0 mi West 8.1 mph - N/A   Clear
6:35 PM 35.8 °F 30.9 °F 2.5 °F 25% 30.32 in 10.0 mi West 5.8 mph - N/A   Clear
6:55 PM 35.1 °F 30.1 °F 3.2 °F 26% 30.33 in 10.0 mi West 5.8 mph - N/A   Clear
7:15 PM 34.0 °F 29.8 °F 7.9 °F 34% 30.34 in 10.0 mi SE 4.6 mph - N/A   Clear
7:35 PM 33.1 °F 30.0 °F 11.7 °F 41% 30.34 in 10.0 mi ESE 3.5 mph - N/A   Clear
7:55 PM 32.4 °F 29.1 °F 9.7 °F 39% 30.35 in 10.0 mi SE 3.5 mph - N/A   Clear
8:15 PM 32.0 °F 27.5 °F 14.5 °F 49% 30.35 in 10.0 mi ESE 4.6 mph - N/A   Clear
8:35 PM 32.0 °F 28.7 °F 13.1 °F 46% 30.36 in 10.0 mi East 3.5 mph - N/A   Clear
8:55 PM 31.8 °F 27.3 °F 14.2 °F 48% 30.37 in 10.0 mi SE 4.6 mph - N/A   Clear
9:15 PM 31.1 °F 26.4 °F 13.3 °F 48% 30.39 in 10.0 mi ESE 4.6 mph - N/A   Clear
9:35 PM 30.4 °F 26.9 °F 14.0 °F 51% 30.39 in 10.0 mi East 3.5 mph - N/A   Clear
9:55 PM 29.7 °F 23.7 °F 15.6 °F 56% 30.39 in 10.0 mi ESE 5.8 mph - N/A   Clear
10:15 PM 30.2 °F 24.3 °F 14.4 °F 52% 30.39 in 10.0 mi SE 5.8 mph - N/A   Clear
10:35 PM 29.3 °F 23.2 °F 15.1 °F 55% 30.40 in 10.0 mi SE 5.8 mph - N/A   Clear
10:55 PM 28.9 °F 21.1 °F 15.4 °F 57% 30.41 in 10.0 mi SE 8.1 mph - N/A   Clear
11:15 PM 29.1 °F 22.1 °F 14.5 °F 55% 30.41 in 10.0 mi SE 6.9 mph - N/A   Clear
11:35 PM 28.9 °F 22.8 °F 13.3 °F 52% 30.42 in 10.0 mi ESE 5.8 mph - N/A   Clear
11:55 PM 28.9 °F 21.9 °F 13.6 °F 53% 30.42 in 10.0 mi SE 6.9 mph - N/A   Clear